Theta_e
304 304 304 305 306 306 305 305 304 304 303 303 307 308 308 305 304 302 300 298 297 297 296 295 295 294 294 292 295 298 300 301 302 302 306 310 316 317 323 325 325 325 325 326
304 303 303 302 303 303 303 303 303 303 302 307 306 306 304 302 301 299 297 296 295 294 294 293 292 292 292 291 293 296 298 299 299 301 304 308 308 313 319 316 322 323 323 324
302 301 301 301 303 303 303 303 303 304 307 304 304 301 299 299 297 296 294 293 292 292 291 290 290 291 290 290 292 295 297 297 297 299 300 302 302 306 312 310 315 319 320 322
302 301 301 306 305 304 305 305 306 305 304 302 299 297 295 294 294 293 292 290 289 290 289 290 290 289 289 289 292 294 295 295 295 296 297 298 299 300 301 302 303 305 306 310
305 304 305 305 304 303 303 305 300 301 301 300 297 296 293 292 291 290 289 289 289 288 288 289 289 288 288 290 292 293 292 293 292 294 294 296 296 297 299 300 300 300 301 301
305 306 305 306 302 301 301 305 298 297 297 298 298 302 294 290 289 288 289 288 288 288 288 288 288 289 290 290 291 291 291 291 291 292 292 292 293 294 295 296 295 297 299 300
305 306 305 301 301 301 304 302 295 294 293 297 298 293 289 288 287 288 288 288 288 288 287 287 288 288 289 289 289 289 290 291 292 291 291 291 291 292 292 292 294 295 295 296
305 306 308 299 301 302 297 295 294 292 292 291 290 289 287 287 286 286 287 287 287 287 287 287 287 288 288 288 288 289 290 290 291 292 291 291 292 291 292 292 291 291 291 291
304 304 297 296 295 294 294 294 292 291 290 289 288 286 286 285 285 285 286 287 288 287 287 286 286 286 287 288 288 288 288 288 288 289 290 291 291 292 292 290 291 290 290 290
303 299 296 294 293 293 293 292 291 290 288 287 286 286 285 285 285 284 284 285 286 286 286 285 285 285 286 287 288 287 287 287 287 286 287 288 289 289 290 290 289 289 290 290
299 297 296 294 293 292 291 289 288 288 288 287 287 286 286 285 284 283 283 283 283 284 284 284 283 283 284 284 285 286 286 285 286 286 286 286 286 285 285 285 287 288 287 288
305 299 299 295 292 291 290 289 289 288 288 287 286 286 285 284 284 283 282 282 282 281 281 281 281 281 282 282 284 284 285 285 284 285 285 285 284 285 284 282 282 284 285 285
298 297 295 293 292 291 290 289 289 288 288 287 287 286 285 284 284 282 282 282 283 283 282 281 280 280 281 280 281 282 282 283 283 283 283 283 283 283 283 283 282 281 280 280
295 294 293 292 291 291 290 289 288 287 287 287 287 286 285 285 284 283 281 281 280 281 280 280 280 280 280 280 280 281 281 281 282 281 281 282 282 282 282 282 282 281 280 280
295 296 294 292 291 290 289 288 288 287 287 286 286 286 285 284 282 281 280 280 279 279 279 279 279 279 279 279 281 281 281 280 281 281 281 281 282 282 281 281 281 280 279 279
295 294 293 292 290 289 289 289 288 287 286 285 284 283 282 281 280 279 279 280 280 280 279 279 279 279 279 278 280 281 282 280 280 281 281 281 281 281 281 281 280 280 277 276
294 293 292 291 291 290 290 289 288 287 286 285 283 282 281 280 279 279 280 280 279 278 278 278 278 278 278 277 279 280 280 280 279 280 280 280 280 280 280 280 279 279 278 276
295 294 293 292 291 290 289 288 287 286 285 283 283 283 281 280 280 279 279 278 278 278 277 277 277 277 277 277 277 278 278 278 279 279 279 279 278 279 278 278 278 277 277 276
294 293 293 292 290 289 287 286 284 284 284 283 283 281 280 279 279 279 278 278 278 277 276 276 276 276 276 275 276 277 277 277 277 277 277 277 277 277 277 277 277 276 276 275
293 292 291 289 288 287 285 285 285 285 284 283 280 280 279 279 279 278 277 277 276 276 276 276 275 275 274 274 275 276 276 276 276 276 275 275 276 275 276 276 275 275 275 274
290 289 288 288 287 286 286 285 285 284 282 280 280 279 279 278 278 278 279 280 277 276 276 275 274 274 273 274 275 274 274 274 274 274 274 274 274 274 274 274 274 274 274 273
289 289 289 288 287 286 285 284 283 281 281 280 279 278 278 278 277 277 277 277 276 275 275 275 274 273 273 273 274 274 274 273 273 273 273 273 273 272 272 272 272 272 272 272
288 288 287 286 285 285 284 282 279 280 279 279 278 278 279 280 279 280 280 278 276 275 275 275 274 273 273 273 273 273 273 273 273 273 272 272 272 272 271 271 271 271 271 271
287 286 285 284 284 283 280 279 279 279 278 278 279 278 278 279 279 278 277 276 275 275 274 274 273 273 273 272 273 273 272 272 272 272 272 272 272 272 271 271 271 270 270 270
285 284 284 283 280 280 279 279 279 278 279 278 278 278 277 277 277 277 276 276 275 274 275 275 273 273 272 272 272 271 271 271 271 270 270 271 271 271 272 271 270 270 270 269
283 282 281 281 282 281 280 280 281 280 280 280 279 277 277 276 276 276 275 275 274 274 274 273 272 270 271 270 270 270 269 269 269 268 268 268 269 269 270 270 270 270 269 269
282 281 281 282 282 281 281 282 282 281 280 280 280 277 276 276 275 275 274 274 274 273 272 271 270 270 269 268 268 268 267 267 267 265 265 265 265 265 265 266 267 267 267 267
Wind_Speed
2 1 1 2 6 7 8 9 6 10 11 9 12 12 11 10 9 9 10 12 14 16 17 19 21 23 24 26 30 29 27 26 24 20 17 11 7 14 6 19 18 18 23 33
8 4 6 8 9 11 11 11 13 13 11 14 15 15 10 7 8 7 10 11 13 15 16 18 21 22 22 24 26 28 29 28 25 23 20 17 16 8 10 6 18 25 21 28
7 2 4 9 6 8 10 10 7 9 9 14 13 11 15 11 8 8 9 11 13 15 16 17 19 20 21 22 23 27 28 28 28 27 25 23 22 16 7 9 6 11 20 25
1 4 5 6 8 4 7 7 8 7 10 9 7 8 10 11 9 9 11 13 14 14 15 17 17 18 19 19 24 27 28 27 28 27 27 26 24 22 20 16 11 3 6 14
3 7 7 6 6 3 3 3 6 6 7 2 6 9 11 10 10 10 9 11 13 13 14 19 18 18 18 23 26 27 28 28 28 28 28 27 28 27 25 21 19 15 9 8
5 4 4 6 6 6 3 4 6 7 7 6 6 5 6 7 8 9 10 10 12 14 15 18 22 21 23 26 27 29 28 27 26 27 29 30 29 30 28 26 26 24 22 19
6 5 5 1 6 3 4 5 6 8 10 7 2 9 9 7 8 9 10 12 13 14 16 17 18 23 27 26 27 25 25 26 27 28 28 29 29 29 30 30 30 31 31 28
4 4 3 10 1 2 3 5 4 8 10 16 16 14 11 9 9 11 13 14 14 15 17 17 18 18 23 27 25 23 24 25 26 26 27 26 27 29 29 30 31 32 32 33
4 3 5 8 9 4 4 6 6 8 9 10 12 12 10 10 11 11 12 13 11 13 14 17 19 19 20 20 20 21 22 24 25 27 26 27 28 27 28 29 30 31 31 32
6 6 6 7 8 8 8 9 9 9 9 10 13 12 12 12 11 10 11 12 12 13 16 18 18 19 19 18 17 18 18 19 20 24 25 28 28 28 28 28 27 27 26 26
4 7 9 7 8 9 10 10 11 11 10 10 12 12 11 11 10 10 11 12 12 13 14 16 16 18 20 20 18 17 18 18 19 20 21 23 26 28 28 27 23 21 21 21
2 15 7 13 11 10 10 10 10 10 10 10 10 11 10 10 10 10 11 11 12 13 14 15 16 18 19 19 19 18 17 17 19 17 17 17 17 21 23 24 21 18 17 16
5 11 13 16 13 11 12 11 10 10 10 10 9 9 9 10 9 10 10 10 12 13 13 14 16 18 19 20 18 17 18 16 15 16 16 16 15 15 14 18 22 18 20 17
18 21 15 15 10 13 13 12 12 10 9 9 9 9 9 9 9 9 9 9 9 11 12 13 14 14 16 17 17 17 15 16 15 15 15 15 15 14 13 14 14 16 20 19
13 2 15 17 17 15 14 13 12 11 10 9 8 9 9 9 9 9 8 8 8 10 12 13 14 15 16 16 16 17 19 16 15 15 15 15 14 13 13 13 13 13 12 11
11 16 19 18 16 15 13 12 11 11 10 10 10 10 10 9 8 8 9 9 7 10 12 13 14 15 15 14 15 14 14 19 15 14 14 13 13 12 11 11 11 12 12 14
18 19 18 16 15 14 12 11 11 11 11 11 11 11 10 9 8 7 8 8 9 11 12 13 13 13 13 13 13 13 13 13 15 12 12 12 11 12 12 12 11 11 12 16
14 15 15 14 14 14 13 12 13 13 12 12 13 11 9 8 7 6 7 8 9 10 11 11 11 11 12 12 12 12 12 12 12 12 11 12 12 11 11 10 10 9 9 12
13 15 13 14 13 13 14 15 15 15 14 13 11 9 8 6 5 4 5 6 9 7 10 11 11 13 14 13 12 11 11 12 11 11 11 11 11 10 10 9 9 10 9 9
14 16 16 15 14 15 15 15 15 15 14 12 10 8 6 5 4 3 5 7 8 9 10 11 12 12 12 12 13 11 12 12 11 11 11 11 11 11 11 11 11 10 10 10
19 19 18 17 17 14 14 16 15 15 14 11 9 7 6 4 3 3 8 3 8 9 10 12 12 10 11 11 11 11 12 12 12 12 12 13 13 12 12 12 11 11 10 10
18 18 16 15 16 17 17 17 16 14 12 10 9 7 5 3 2 4 4 3 4 9 6 5 7 12 13 12 10 11 11 12 12 12 12 12 12 12 12 12 12 12 12 11
17 17 17 17 18 20 19 17 15 12 11 10 8 6 5 3 0 2 5 10 3 8 6 7 13 13 14 13 11 12 12 13 13 14 14 14 14 13 13 12 13 12 12 12
17 17 18 20 20 19 18 16 14 12 10 8 6 4 3 2 4 3 4 8 7 8 7 9 15 16 17 14 12 14 14 15 15 15 16 17 17 16 16 15 13 13 13 12
17 19 20 21 18 14 15 14 12 10 8 5 3 2 1 2 2 5 5 7 11 9 5 13 17 16 12 12 13 14 14 14 16 17 16 16 17 17 18 18 17 16 15 15
18 18 19 15 12 13 13 12 9 8 7 5 3 3 2 1 3 3 6 7 4 6 5 9 13 13 10 11 13 14 15 15 15 15 15 14 14 13 14 13 12 13 14 15
15 16 15 13 13 12 11 10 8 7 8 7 5 3 1 1 4 2 4 4 4 7 8 10 10 13 14 13 12 13 13 14 15 15 14 14 13 13 14 16 16 17 15 15
Wind_Direction
320 35 11 266 222 216 241 249 264 287 301 333 16 356 26 7 6 6 8 4 3 360 356 357 358 2 1 3 12 15 18 14 18 7 357 0 17 330 238 220 200 193 208 211
226 240 260 266 254 251 261 268 267 278 283 36 354 1 58 50 32 24 17 6 359 358 357 2 1 2 1 4 11 21 27 27 24 23 16 15 33 39 270 261 197 215 220 208
235 192 264 255 278 287 278 252 288 276 358 7 24 51 42 45 41 30 26 12 6 3 2 3 4 360 6 6 16 31 31 30 30 34 35 31 34 30 26 339 258 195 189 199
187 187 227 77 62 16 341 346 4 336 358 12 65 75 60 50 46 33 28 20 15 8 10 12 10 14 13 16 29 36 37 34 34 35 40 42 44 51 55 46 39 301 168 168
194 217 105 161 52 40 15 64 49 334 335 353 147 139 70 57 55 44 32 27 15 21 25 22 23 23 22 34 38 41 38 37 38 38 41 43 46 47 54 62 63 55 61 66
196 248 237 83 36 34 54 231 26 356 324 294 195 245 81 56 56 48 40 32 32 29 35 35 30 40 41 43 43 43 41 42 44 46 48 48 51 54 56 57 63 70 66 60
201 239 104 217 345 40 245 51 21 15 354 248 159 77 104 86 65 54 45 38 34 35 34 29 30 36 42 42 42 43 46 48 50 52 53 58 57 58 61 63 61 60 63 63
225 232 200 356 145 277 25 61 70 64 63 83 100 99 92 85 70 61 52 44 37 35 36 33 31 30 33 28 32 36 43 48 48 50 55 52 59 63 60 63 63 63 62 62
8 56 90 48 78 74 62 98 89 93 87 98 97 93 95 83 72 66 61 46 42 41 39 37 31 33 31 32 19 24 30 34 42 46 48 53 52 53 58 57 58 58 57 58
182 133 118 102 93 84 95 108 103 98 101 109 108 105 95 84 74 66 66 53 50 46 43 37 32 32 30 27 27 29 33 34 33 33 33 43 48 50 52 52 53 53 55 56
79 132 124 114 116 118 111 111 111 106 105 104 103 98 97 89 79 71 64 59 56 54 47 39 32 33 29 29 32 32 32 34 32 32 36 23 30 37 39 38 39 45 45 44
132 158 85 136 137 136 129 123 117 115 113 109 111 109 104 94 84 74 66 62 59 55 51 44 40 40 37 32 30 36 35 31 34 32 31 30 32 14 18 23 29 33 36 40
121 123 127 133 133 137 134 133 126 125 121 118 113 114 109 100 88 77 68 65 63 58 53 48 43 39 40 36 34 32 34 32 30 31 28 28 27 28 25 9 6 23 35 34
127 124 123 140 141 136 135 135 130 127 125 124 122 115 106 100 91 80 71 64 56 54 52 49 43 40 39 43 27 33 34 32 28 25 26 24 21 20 21 19 17 14 7 15
143 125 143 137 134 137 140 140 138 137 136 131 128 123 120 114 102 89 80 64 49 41 40 34 30 26 28 34 34 19 17 24 29 20 20 21 19 16 15 16 16 11 9 13
134 136 140 140 143 144 149 153 148 150 148 142 132 121 114 111 105 94 81 72 54 39 32 26 22 20 16 19 38 18 13 1 24 12 10 11 10 9 7 9 9 5 357 7
149 152 151 150 152 153 156 159 160 155 150 147 137 130 128 122 108 85 65 48 39 33 25 16 13 11 11 12 26 11 8 3 7 5 2 358 360 358 359 360 1 360 353 352
163 162 162 160 158 157 156 154 152 148 148 151 159 148 138 128 99 75 52 39 30 25 16 12 11 10 11 11 18 9 3 0 358 356 354 349 352 351 348 350 346 346 347 343
161 162 161 157 157 158 154 153 158 167 159 153 147 138 127 107 86 67 54 45 35 14 10 12 14 14 8 12 25 4 2 359 358 353 347 349 341 343 339 335 334 337 338 339
140 144 146 147 157 159 161 168 159 158 155 151 144 135 127 114 98 79 61 47 28 16 12 13 21 9 4 3 26 3 0 358 354 349 343 347 339 339 334 330 333 332 331 332
159 163 167 169 169 170 167 163 160 157 155 153 149 144 124 118 103 77 40 4 346 3 5 15 12 18 358 15 17 1 359 357 351 347 342 340 338 332 328 325 321 320 321 319
173 173 171 169 170 164 160 162 162 160 156 156 150 135 138 117 80 62 31 18 330 358 20 357 350 353 357 10 350 349 346 342 340 337 333 331 330 327 325 323 319 314 312 311
168 168 168 169 167 164 162 160 159 158 159 151 141 150 125 167 187 325 325 317 323 320 353 313 324 340 343 352 332 330 327 327 322 319 318 316 317 316 316 318 316 319 315 311
168 168 166 166 163 161 160 158 158 159 150 147 170 180 149 343 309 315 297 292 292 308 319 305 324 330 330 340 330 319 319 315 314 313 307 305 305 302 305 306 307 306 308 309
170 167 164 159 155 155 161 156 153 153 154 154 182 217 213 292 235 281 292 287 301 317 319 305 309 320 347 326 319 320 319 319 313 313 312 308 307 296 294 295 297 298 297 298
162 160 159 153 159 157 157 154 158 156 149 167 173 182 267 316 320 353 322 323 319 322 310 294 303 323 324 316 320 317 316 316 315 315 319 317 310 310 296 295 291 289 294 299
155 157 157 158 158 160 158 158 158 161 159 170 183 204 243 308 307 346 339 312 312 312 313 311 318 315 318 325 323 318 317 314 308 313 316 312 314 312 309 290 285 279 280 289